SCP
0 0 0 0 0 0 0 0 0 -0 -0 -0 -0 -0 -0 -0 -0 -0 -0 -0 -0 -0 -0 -0 -0 -0 -0 0 0 0 0 -0 -0 -0 -0 -0 -0 0 0 0 0 0 0 -0 -0 0 0
0 0 0 0 0 0 0 0 0 0 0 0 -0 -0 -0 -0 -0 -0 -0 -0 -0 -0 -0 -0 -0 0 0 0 0 -0 -0 -0 -0 0 0 -0 -0 0 0 0 0 -0 0 0 0 0 0
0 0 0 0 0 0 0 0 0 0 0 0 0 0 -0 -0 -0 -0 -0 -0 -0 -0 -0 -0 0 0 0 -0 0 -0 -0 -0 -0 0 -0 -0 0 -0 0 -0 0 -0 0 0 0 0 0
0 0 0 0 0 0 0 0 0 0 0 0 0 0 -0 -0 -0 -0 -0 -0 -0 -0 -0 0 0 0 0 0 -0 0 -0 -0 -0 -0 -0 -0 -0 -0 0 -0 0 0 0 0 0 -0 0
0 0 0 0 0 0 0 0 0 0 0 0 0 0 0 -0 -0 -0 -0 -0 -0 -0 0 0 0 0 0 0 0 -0 -0 -0 -0 -0 0 -0 -0 0 -0 0 0 0 0 0 0 0 0
0 0 0 0 0 0 0 0 0 0 0 0 0 0 0 0 -0 -0 -0 -0 0 0 0 0 0 0 -0 -0 0 0 0 -0 -0 0 -0 -0 0 0 -0 0 0 0 0 0 0 0 0
0 0 0 0 0 0 0 0 0 0 0 0 0 0 0 0 -0 0 0 0 0 0 0 0 0 0 0 0 0 0 0 -0 -0 -0 0 -0 0 0 -0 -0 0 -0 -0 0 0 -0 0
0 0 0 0 0 0 0 0 0 0 0 0 0 0 0 0 -0 0 0 0 0 0 0 0 -0 0 -0 0 0 0 -0 0 -0 -0 -0 -0 0 -0 -0 -0 -0 0 -0 0 -0 0 0
-0 -0 -0 -0 -0 0 0 0 0 0 0 0 0 0 0 -0 -0 0 0 0 0 0 0 0 0 0 -0 0 0 -0 -0 0 -0 0 -0 -0 -0 -0 -0 -0 -0 0 0 -0 -0 -0 0
-0 -0 -0 -0 -0 0 0 0 0 0 0 0 0 0 0 -0 0 0 0 0 0 0 0 0 0 0 0 0 0 -0 0 0 0 -0 -0 -0 -0 -0 0 0 -0 -0 -0 -0 -0 -0 0
-0 -0 -0 -0 -0 -0 -0 -0 -0 -0 -0 -0 -0 -0 0 0 0 0 0 0 0 0 0 0 0 0 0 0 0 0 0 0 0 0 0 -0 -0 -0 -0 0 0 0 0 0 -0 -0 -0
-0 -0 -0 -0 -0 -0 -0 -0 -0 -0 -0 -0 -0 -0 -0 -0 0 0 0 0 0 0 0 0 0 0 0 0 0 0 0 0 0 -0 -0 0 -0 -0 -0 0 0 -0 0 -0 -0 -0 0
-0 -0 -0 -0 -0 -0 -0 -0 -0 -0 -0 -0 -0 -0 0 0 0 0 0 0 0 0 0 0 0 0 0 0 -0 0 0 0 0 0 -0 0 -0 0 -0 -0 0 0 -0 0 -0 -0 0
-0 -0 -0 -0 -0 -0 -0 -0 -0 -0 -0 -0 -0 -0 -0 -0 -0 -0 0 0 0 0 -0 0 0 0 0 0 0 0 0 0 0 0 -0 0 0 -0 -0 0 0 -0 -0 0 0 0 0
-0 -0 -0 -0 -0 -0 -0 -0 -0 -0 -0 -0 -0 0 0 -0 -0 0 0 0 0 0 0 0 -0 0 0 0 0 0 0 0 0 0 0 0 0 -0 0 0 0 0 0 -0 -0 0 0
-0 -0 -0 -0 -0 -0 -0 -0 -0 -0 -0 -0 -0 -0 0 -0 -0 0 0 0 0 -0 0 0 0 0 0 0 0 0 0 -0 0 -0 -0 -0 0 0 -0 0 0 0 0 -0 -0 -0 0
-0 -0 -0 -0 -0 -0 -0 -0 -0 -0 -0 -0 0 0 -0 -0 -0 0 0 -0 -0 -0 0 0 0 0 0 0 0 0 0 -0 0 0 0 0 0 0 -0 0 0 0 0 0 0 0 -0
-0 -0 -0 -0 -0 -0 -0 -0 -0 -0 -0 -0 -0 0 -0 -0 0 0 0 -0 -0 -0 -0 0 0 0 0 0 0 0 0 0 0 0 0 0 0 0 0 0 0 0 -0 0 0 0 0
-0 -0 -0 -0 -0 -0 -0 -0 -0 -0 -0 0 -0 -0 -0 -0 -0 -0 -0 -0 0 -0 -0 -0 0 0 0 0 0 0 0 0 0 0 0 0 0 0 0 0 0 0 0 0 0 0 0
-0 -0 -0 -0 -0 -0 -0 -0 -0 -0 -0 0 0 0 -0 -0 -0 -0 -0 -0 -0 -0 -0 0 0 0 0 0 0 0 0 0 0 0 0 0 0 0 0 0 0 -0 -0 0 0 0 -0
-0 -0 -0 -0 -0 -0 -0 -0 -0 -0 -0 -0 0 -0 -0 -0 -0 -0 -0 -0 -0 0 0 0 0 -0 0 0 0 0 0 0 0 0 0 0 0 0 0 0 -0 0 0 0 0 -0 0
-0 -0 -0 -0 -0 -0 -0 -0 -0 -0 -0 -0 0 -0 -0 -0 -0 0 0 0 0 -0 -0 0 0 0 0 0 0 0 0 0 0 0 0 0 0 0 0 -0 0 -0 0 0 0 0 0
0 0 -0 -0 -0 -0 -0 -0 -0 -0 -0 0 0 0 0 0 -0 0 -0 -0 -0 -0 0 -0 -0 -0 0 0 0 0 0 0 0 0 0 0 0 0 0 0 0 0 0 0 0 -0 -0
-0 -0 0 -0 -0 -0 -0 -0 -0 -0 -0 -0 0 0 0 0 0 0 -0 -0 -0 -0 0 0 0 0 0 0 -0 0 0 0 0 0 0 0 0 0 0 0 0 0 0 -0 -0 -0 -0
-0 -0 -0 -0 -0 -0 -0 -0 -0 -0 -0 -0 0 0 0 0 0 0 -0 0 0 0 0 0 0 0 0 0 0 0 0 0 0 0 0 0 0 0 0 0 0 0 -0 -0 0 0 0
0 -0 -0 -0 0 -0 -0 -0 -0 -0 -0 -0 -0 -0 -0 0 0 -0 0 0 0 0 0 0 -0 0 0 0 0 0 0 0 0 0 0 0 0 0 0 0 -0 0 0 0 0 0 0
0 0 0 0 0 0 0 -0 -0 -0 -0 -0 0 0 0 0 0 0 0 0 0 0 0 0 0 0 0 0 0 0 0 0 0 0 0 0 0 0 0 0 0 0 0 0 0 1 0
0 0 0 0 0 0 0 0 0 -0 -0 0 -0 0 0 0 0 0 0 0 0 0 0 -0 0 0 0 0 0 0 0 0 0 0 0 0 0 0 0 0 0 0 0 0 0 0 1
0 0 0 0 0 0 0 0 0 0 0 0 0 0 0 0 0 -0 0 0 0 0 0 0 0 0 0 0 0 0 0 0 0 0 0 0 0 0 0 0 0 0 0 0 -0 0 0
Wind_Speed_500mb
22 23 25 26 28 29 32 33 33 33 34 36 37 38 39 40 40 40 39 37 35 31 29 24 22 19 20 11 20 10 16 19 23 22 13 20 45 36 16 15 13 18 19 50 47 58 47
25 25 26 27 27 28 30 32 34 35 36 37 38 39 40 42 42 41 39 35 33 28 25 22 19 15 14 11 10 18 27 25 24 21 12 17 27 33 31 28 19 18 37 17 31 19 35
26 27 28 28 28 28 30 32 34 36 38 39 40 40 41 42 43 41 38 34 31 24 21 17 16 12 17 29 5 16 23 12 22 15 14 23 30 31 41 13 33 27 6 19 28 21 13
28 28 29 29 29 30 32 34 36 38 39 41 42 42 42 43 43 42 37 33 28 23 17 12 13 14 17 5 16 14 20 5 8 20 26 33 27 30 29 44 19 3 14 10 13 20 15
28 28 30 31 32 33 35 37 38 39 40 41 42 42 42 43 43 42 34 30 26 21 15 12 6 11 20 9 27 29 24 18 15 20 22 24 24 25 39 14 10 6 6 21 13 39 20
28 30 32 34 35 36 37 39 40 41 42 42 42 41 41 41 40 39 28 28 18 17 11 13 17 16 15 24 28 18 25 23 28 19 25 31 27 11 13 1 13 16 4 12 6 22 17
30 32 34 36 37 39 39 40 41 42 43 43 42 40 38 38 36 31 17 27 17 5 18 19 13 19 24 8 6 15 25 23 23 16 9 35 6 16 27 21 27 22 17 26 10 34 21
32 34 35 37 38 40 41 42 43 43 43 43 42 40 37 33 30 16 18 21 14 19 24 35 47 50 47 22 7 20 27 27 21 11 19 14 16 30 32 10 24 19 21 9 10 19 26
33 35 37 38 39 41 42 43 44 44 42 41 40 39 35 27 19 5 18 17 23 23 12 34 43 46 45 31 22 26 35 35 18 14 21 16 27 28 27 20 19 13 15 2 3 5 2
35 36 38 40 41 42 43 44 43 43 42 41 39 35 32 25 10 14 4 12 18 17 6 12 14 21 39 31 21 45 42 37 18 21 20 18 33 25 23 14 12 16 20 11 13 14 7
35 38 38 39 41 42 43 43 42 42 41 39 36 31 23 24 17 14 12 13 22 15 8 21 15 21 22 25 3 23 38 49 21 20 11 24 19 17 18 12 18 19 20 13 5 9 15
36 38 39 40 42 42 41 41 41 41 40 36 33 30 20 23 19 3 15 26 22 2 10 13 17 15 12 25 38 19 27 41 36 18 22 21 51 15 10 9 11 16 15 18 16 10 8
37 39 39 40 41 41 42 44 43 42 40 35 28 27 23 22 9 5 7 19 3 6 10 10 13 22 22 21 17 13 17 10 10 7 16 20 29 27 19 8 10 16 8 7 11 10 14
37 39 40 41 43 43 46 47 46 43 41 31 22 21 17 11 21 4 15 6 8 14 25 16 19 12 7 11 21 21 16 15 18 19 12 10 21 26 24 20 17 14 9 10 5 10 14
40 40 43 45 47 46 48 50 49 43 41 27 13 5 0 11 10 8 9 5 8 15 20 19 21 14 17 19 14 19 22 19 21 24 17 8 20 20 14 12 18 16 9 17 5 12 7
45 43 44 47 50 51 51 53 51 43 38 24 5 10 13 3 8 5 5 10 6 14 16 13 10 17 17 7 14 10 10 19 18 22 28 18 11 17 11 7 5 12 7 13 8 1 2
49 45 45 47 49 53 55 56 55 44 33 19 15 10 10 14 11 12 6 10 8 32 14 13 19 20 26 20 25 8 12 15 19 5 8 8 3 20 14 3 11 9 8 7 3 6 4
46 48 45 46 49 51 54 56 56 47 32 21 14 5 10 13 10 12 9 7 4 16 9 7 9 13 16 20 16 19 18 14 39 25 8 15 2 8 17 23 13 17 17 15 10 18 8
45 49 49 47 49 52 53 54 52 47 41 40 21 14 10 13 6 11 16 9 6 3 18 19 14 20 26 16 13 22 29 30 20 13 7 13 8 10 20 18 19 11 14 13 6 3 13
42 45 48 48 49 50 52 51 47 38 39 41 14 5 12 19 32 21 16 16 13 17 7 6 13 21 14 15 17 14 22 29 29 11 12 5 7 9 10 17 15 12 15 13 9 3 9
38 43 46 48 49 50 52 51 46 27 33 34 13 12 23 8 19 19 22 19 20 14 8 8 8 12 10 9 17 20 30 31 46 8 5 9 9 13 22 21 15 18 25 36 13 17 9
36 39 42 45 47 49 51 52 49 36 26 29 18 17 24 31 38 12 7 11 13 24 22 21 18 26 17 16 14 23 25 29 9 24 22 13 8 10 14 25 28 12 35 38 24 28 35
33 36 39 42 43 45 47 49 50 46 32 17 41 23 18 23 22 14 17 23 30 31 19 37 37 23 12 22 38 38 40 48 34 18 20 15 6 8 8 23 19 7 28 15 10 28 22
33 32 35 39 41 43 44 45 45 43 38 32 37 26 13 10 18 20 29 32 27 25 15 34 36 17 32 46 50 39 51 40 33 25 29 16 5 4 3 13 6 10 21 17 14 36 48
30 32 34 35 37 39 41 42 41 38 32 21 34 22 14 10 31 24 33 25 29 31 20 26 31 28 26 30 9 13 18 13 19 21 5 13 8 5 3 2 5 13 9 10 15 12 38
31 31 31 34 35 36 38 39 38 36 31 12 25 29 9 17 7 33 26 29 13 20 14 31 43 30 29 6 5 6 7 15 10 17 19 19 13 8 5 4 8 5 19 39 14 5 33
33 32 30 30 31 33 35 37 37 35 30 21 23 35 13 13 17 31 11 17 19 18 8 13 36 19 15 4 7 8 13 14 5 7 10 8 6 1 6 6 6 15 30 16 6 6 35
32 33 32 29 28 28 31 33 35 36 32 25 15 27 24 13 43 9 11 18 26 22 8 34 20 25 12 8 5 7 6 7 8 8 3 3 2 4 4 6 5 29 15 11 10 37 23
33 33 33 30 29 26 26 29 31 33 33 31 23 22 31 21 21 41 21 22 26 26 23 14 19 29 9 7 8 7 8 7 3 1 7 3 6 4 2 5 13 21 9 20 3 37 32
Wind_Direction_500mb
351 350 349 346 345 345 345 345 343 340 339 338 337 335 333 331 331 331 331 332 334 332 332 330 324 318 312 297 272 269 269 277 241 234 253 285 294 322 342 321 181 31 357 24 349 93 97
342 341 341 341 339 338 339 339 339 338 336 333 333 332 331 329 328 328 328 328 329 330 330 331 322 314 300 267 288 290 290 248 215 221 242 274 288 347 330 46 67 35 61 279 331 92 115
335 335 335 336 336 333 332 332 333 333 333 331 328 328 329 328 326 325 324 324 323 323 322 328 321 307 270 236 256 310 326 205 198 211 254 290 342 350 320 339 89 142 104 335 307 294 91
331 332 334 335 333 331 330 328 328 328 327 327 326 325 326 326 325 323 322 320 315 312 305 312 311 314 263 325 215 237 282 250 187 233 273 301 322 316 294 300 286 332 90 228 245 203 172
334 334 335 335 332 330 328 326 324 324 324 323 323 323 322 324 326 323 323 316 310 304 293 280 287 306 276 248 226 243 226 224 227 245 261 279 297 290 294 303 346 53 186 221 132 205 129
337 335 333 332 330 328 326 324 323 323 322 322 321 322 320 322 326 325 328 324 318 294 299 267 235 298 245 244 241 183 201 225 229 233 253 258 265 258 277 276 285 270 315 352 206 164 125
336 334 332 330 329 327 326 324 323 321 321 319 319 320 319 321 326 328 354 10 352 22 314 237 262 245 289 150 132 192 197 216 253 281 250 256 243 250 253 218 222 269 256 230 115 166 115
337 335 334 332 329 326 324 322 321 320 318 317 316 317 318 321 324 319 327 344 23 330 298 276 258 255 264 285 224 207 207 198 228 241 271 300 252 250 267 206 218 241 255 288 283 96 116
341 339 337 334 331 328 325 323 321 319 317 315 313 315 318 322 321 314 319 314 330 338 284 291 234 231 238 243 225 242 201 213 226 224 247 236 259 270 266 257 289 278 238 300 77 303 116
344 342 340 336 334 331 329 326 324 322 319 317 314 314 317 322 293 290 337 353 329 327 300 260 178 220 221 215 264 236 216 203 218 241 244 235 255 271 293 295 316 312 305 32 21 6 277
349 347 345 341 339 337 335 332 329 325 322 319 315 311 314 311 287 274 347 355 328 311 332 152 145 150 171 190 179 199 216 198 221 230 238 259 272 274 277 276 288 264 296 335 342 292 46
354 352 353 351 348 346 343 340 334 329 324 318 314 308 305 293 277 277 338 335 316 287 240 156 143 184 201 201 259 250 195 206 216 255 283 270 288 274 272 330 337 313 302 346 329 26 341
358 359 357 354 351 349 348 345 341 335 328 322 313 301 290 268 213 62 310 305 276 241 296 141 185 160 186 201 227 173 183 201 197 222 257 271 262 273 256 234 292 291 312 322 39 67 253
1 1 1 0 357 354 351 349 346 340 332 327 313 300 286 261 212 235 332 308 258 325 13 23 10 319 232 202 205 207 176 202 215 230 277 249 290 240 241 193 195 262 188 169 204 192 241
6 3 4 3 3 1 357 352 350 346 336 337 318 337 315 69 190 129 298 265 335 15 20 357 335 298 278 234 213 183 197 208 209 194 197 284 283 311 226 176 160 274 304 237 244 283 70
8 6 6 5 5 4 1 357 355 354 340 345 328 284 283 123 91 107 265 274 297 63 9 356 325 318 327 312 156 187 226 218 228 204 195 240 265 286 306 118 220 168 257 8 347 235 316
10 8 6 5 6 5 4 1 358 0 351 351 359 325 145 157 160 246 245 256 19 0 68 342 333 328 333 352 338 183 239 264 214 124 34 292 102 298 3 279 186 311 277 278 187 158 185
11 11 9 8 8 7 7 4 0 0 9 355 342 265 160 154 211 230 239 265 352 308 343 254 292 309 301 343 336 349 359 44 26 31 30 357 59 317 274 289 229 215 226 196 134 278 222
9 11 10 9 9 9 9 8 3 0 5 355 339 267 150 184 269 308 304 355 140 320 350 350 346 359 350 356 356 339 338 332 63 51 50 0 338 348 319 326 313 250 233 222 238 182 250
6 8 9 9 9 9 10 10 7 0 1 350 348 291 156 206 250 266 328 340 3 129 300 37 343 321 329 320 309 299 310 308 316 132 135 60 271 233 233 258 311 333 347 220 209 301 276
2 6 7 8 8 9 10 12 12 10 8 15 360 25 9 328 334 354 1 337 325 325 76 48 289 294 353 1 340 354 358 342 355 92 242 134 256 293 286 313 345 337 338 9 250 237 204
1 4 6 7 8 8 10 11 16 20 26 33 17 356 336 299 311 287 268 293 339 11 16 355 331 350 8 27 28 342 346 335 329 336 342 347 326 328 321 347 348 345 21 4 5 7 6
354 1 5 6 7 8 10 12 13 20 30 57 10 350 306 296 306 333 14 0 354 8 346 338 357 349 338 343 344 337 311 290 286 300 306 316 326 24 311 326 6 8 353 352 332 38 347
353 351 356 2 6 7 9 12 14 20 27 30 17 355 318 306 339 6 7 10 1 350 333 316 317 323 310 320 314 323 304 292 285 273 264 282 17 98 297 19 26 299 347 30 24 33 15
341 349 350 354 0 6 7 10 12 17 20 29 20 18 343 311 318 348 353 339 327 304 320 319 326 311 291 292 328 323 314 297 258 258 258 87 84 9 9 110 321 324 5 12 22 21 45
331 335 340 346 354 359 4 6 10 11 22 38 27 5 6 313 6 334 341 353 9 358 343 332 347 343 346 341 326 299 283 285 310 340 37 91 91 101 8 341 220 322 350 346 320 42 49
331 327 329 332 340 352 356 360 4 7 11 12 20 350 12 295 256 357 333 312 304 327 282 300 341 324 316 309 280 265 277 292 321 52 8 17 11 338 116 236 67 315 330 333 61 10 333
324 326 322 322 326 335 348 353 358 2 4 13 40 347 357 294 290 303 319 316 320 327 334 336 337 6 329 2 284 303 353 10 75 12 72 119 25 268 251 175 169 345 355 78 257 318 298
301 317 319 316 317 321 330 342 348 354 359 356 348 322 335 270 257 286 290 275 257 255 289 309 307 311 319 351 357 348 326 343 107 223 343 210 205 223 308 180 227 296 183 185 7 352 311
Wind_Speed_850mb
22 23 25 26 28 29 32 33 33 33 34 36 37 38 39 40 40 40 39 37 35 31 29 24 22 19 20 11 20 10 16 19 23 22 13 20 45 36 16 15 13 18 19 50 47 58 47
25 25 26 27 27 28 30 32 34 35 36 37 38 39 40 42 42 41 39 35 33 28 25 22 19 15 14 11 10 18 27 25 24 21 12 17 27 33 31 28 19 18 37 17 31 19 35
26 27 28 28 28 28 30 32 34 36 38 39 40 40 41 42 43 41 38 34 31 24 21 17 16 12 17 29 5 16 23 12 22 15 14 23 30 31 41 13 33 27 6 19 28 21 13
28 28 29 29 29 30 32 34 36 38 39 41 42 42 42 43 43 42 37 33 28 23 17 12 13 14 17 5 16 14 20 5 8 20 26 33 27 30 29 44 19 3 14 10 13 20 15
28 28 30 31 32 33 35 37 38 39 40 41 42 42 42 43 43 42 34 30 26 21 15 12 6 11 20 9 27 29 24 18 15 20 22 24 24 25 39 14 10 6 6 21 13 39 20
28 30 32 34 35 36 37 39 40 41 42 42 42 41 41 41 40 39 28 28 18 17 11 13 17 16 15 24 28 18 25 23 28 19 25 31 27 11 13 1 13 16 4 12 6 22 17
30 32 34 36 37 39 39 40 41 42 43 43 42 40 38 38 36 31 17 27 17 5 18 19 13 19 24 8 6 15 25 23 23 16 9 35 6 16 27 21 27 22 17 26 10 34 21
32 34 35 37 38 40 41 42 43 43 43 43 42 40 37 33 30 16 18 21 14 19 24 35 47 50 47 22 7 20 27 27 21 11 19 14 16 30 32 10 24 19 21 9 10 19 26
33 35 37 38 39 41 42 43 44 44 42 41 40 39 35 27 19 5 18 17 23 23 12 34 43 46 45 31 22 26 35 35 18 14 21 16 27 28 27 20 19 13 15 2 3 5 2
35 36 38 40 41 42 43 44 43 43 42 41 39 35 32 25 10 14 4 12 18 17 6 12 14 21 39 31 21 45 42 37 18 21 20 18 33 25 23 14 12 16 20 11 13 14 7
35 38 38 39 41 42 43 43 42 42 41 39 36 31 23 24 17 14 12 13 22 15 8 21 15 21 22 25 3 23 38 49 21 20 11 24 19 17 18 12 18 19 20 13 5 9 15
36 38 39 40 42 42 41 41 41 41 40 36 33 30 20 23 19 3 15 26 22 2 10 13 17 15 12 25 38 19 27 41 36 18 22 21 51 15 10 9 11 16 15 18 16 10 8
37 39 39 40 41 41 42 44 43 42 40 35 28 27 23 22 9 5 7 19 3 6 10 10 13 22 22 21 17 13 17 10 10 7 16 20 29 27 19 8 10 16 8 7 11 10 14
37 39 40 41 43 43 46 47 46 43 41 31 22 21 17 11 21 4 15 6 8 14 25 16 19 12 7 11 21 21 16 15 18 19 12 10 21 26 24 20 17 14 9 10 5 10 14
40 40 43 45 47 46 48 50 49 43 41 27 13 5 0 11 10 8 9 5 8 15 20 19 21 14 17 19 14 19 22 19 21 24 17 8 20 20 14 12 18 16 9 17 5 12 7
45 43 44 47 50 51 51 53 51 43 38 24 5 10 13 3 8 5 5 10 6 14 16 13 10 17 17 7 14 10 10 19 18 22 28 18 11 17 11 7 5 12 7 13 8 1 2
49 45 45 47 49 53 55 56 55 44 33 19 15 10 10 14 11 12 6 10 8 32 14 13 19 20 26 20 25 8 12 15 19 5 8 8 3 20 14 3 11 9 8 7 3 6 4
46 48 45 46 49 51 54 56 56 47 32 21 14 5 10 13 10 12 9 7 4 16 9 7 9 13 16 20 16 19 18 14 39 25 8 15 2 8 17 23 13 17 17 15 10 18 8
45 49 49 47 49 52 53 54 52 47 41 40 21 14 10 13 6 11 16 9 6 3 18 19 14 20 26 16 13 22 29 30 20 13 7 13 8 10 20 18 19 11 14 13 6 3 13
42 45 48 48 49 50 52 51 47 38 39 41 14 5 12 19 32 21 16 16 13 17 7 6 13 21 14 15 17 14 22 29 29 11 12 5 7 9 10 17 15 12 15 13 9 3 9
38 43 46 48 49 50 52 51 46 27 33 34 13 12 23 8 19 19 22 19 20 14 8 8 8 12 10 9 17 20 30 31 46 8 5 9 9 13 22 21 15 18 25 36 13 17 9
36 39 42 45 47 49 51 52 49 36 26 29 18 17 24 31 38 12 7 11 13 24 22 21 18 26 17 16 14 23 25 29 9 24 22 13 8 10 14 25 28 12 35 38 24 28 35
33 36 39 42 43 45 47 49 50 46 32 17 41 23 18 23 22 14 17 23 30 31 19 37 37 23 12 22 38 38 40 48 34 18 20 15 6 8 8 23 19 7 28 15 10 28 22
33 32 35 39 41 43 44 45 45 43 38 32 37 26 13 10 18 20 29 32 27 25 15 34 36 17 32 46 50 39 51 40 33 25 29 16 5 4 3 13 6 10 21 17 14 36 48
30 32 34 35 37 39 41 42 41 38 32 21 34 22 14 10 31 24 33 25 29 31 20 26 31 28 26 30 9 13 18 13 19 21 5 13 8 5 3 2 5 13 9 10 15 12 38
31 31 31 34 35 36 38 39 38 36 31 12 25 29 9 17 7 33 26 29 13 20 14 31 43 30 29 6 5 6 7 15 10 17 19 19 13 8 5 4 8 5 19 39 14 5 33
33 32 30 30 31 33 35 37 37 35 30 21 23 35 13 13 17 31 11 17 19 18 8 13 36 19 15 4 7 8 13 14 5 7 10 8 6 1 6 6 6 15 30 16 6 6 35
32 33 32 29 28 28 31 33 35 36 32 25 15 27 24 13 43 9 11 18 26 22 8 34 20 25 12 8 5 7 6 7 8 8 3 3 2 4 4 6 5 29 15 11 10 37 23
33 33 33 30 29 26 26 29 31 33 33 31 23 22 31 21 21 41 21 22 26 26 23 14 19 29 9 7 8 7 8 7 3 1 7 3 6 4 2 5 13 21 9 20 3 37 32
Wind_Direction_850mb
351 350 349 346 345 345 345 345 343 340 339 338 337 335 333 331 331 331 331 332 334 332 332 330 324 318 312 297 272 269 269 277 241 234 253 285 294 322 342 321 181 31 357 24 349 93 97
342 341 341 341 339 338 339 339 339 338 336 333 333 332 331 329 328 328 328 328 329 330 330 331 322 314 300 267 288 290 290 248 215 221 242 274 288 347 330 46 67 35 61 279 331 92 115
335 335 335 336 336 333 332 332 333 333 333 331 328 328 329 328 326 325 324 324 323 323 322 328 321 307 270 236 256 310 326 205 198 211 254 290 342 350 320 339 89 142 104 335 307 294 91
331 332 334 335 333 331 330 328 328 328 327 327 326 325 326 326 325 323 322 320 315 312 305 312 311 314 263 325 215 237 282 250 187 233 273 301 322 316 294 300 286 332 90 228 245 203 172
334 334 335 335 332 330 328 326 324 324 324 323 323 323 322 324 326 323 323 316 310 304 293 280 287 306 276 248 226 243 226 224 227 245 261 279 297 290 294 303 346 53 186 221 132 205 129
337 335 333 332 330 328 326 324 323 323 322 322 321 322 320 322 326 325 328 324 318 294 299 267 235 298 245 244 241 183 201 225 229 233 253 258 265 258 277 276 285 270 315 352 206 164 125
336 334 332 330 329 327 326 324 323 321 321 319 319 320 319 321 326 328 354 10 352 22 314 237 262 245 289 150 132 192 197 216 253 281 250 256 243 250 253 218 222 269 256 230 115 166 115
337 335 334 332 329 326 324 322 321 320 318 317 316 317 318 321 324 319 327 344 23 330 298 276 258 255 264 285 224 207 207 198 228 241 271 300 252 250 267 206 218 241 255 288 283 96 116
341 339 337 334 331 328 325 323 321 319 317 315 313 315 318 322 321 314 319 314 330 338 284 291 234 231 238 243 225 242 201 213 226 224 247 236 259 270 266 257 289 278 238 300 77 303 116
344 342 340 336 334 331 329 326 324 322 319 317 314 314 317 322 293 290 337 353 329 327 300 260 178 220 221 215 264 236 216 203 218 241 244 235 255 271 293 295 316 312 305 32 21 6 277
349 347 345 341 339 337 335 332 329 325 322 319 315 311 314 311 287 274 347 355 328 311 332 152 145 150 171 190 179 199 216 198 221 230 238 259 272 274 277 276 288 264 296 335 342 292 46
354 352 353 351 348 346 343 340 334 329 324 318 314 308 305 293 277 277 338 335 316 287 240 156 143 184 201 201 259 250 195 206 216 255 283 270 288 274 272 330 337 313 302 346 329 26 341
358 359 357 354 351 349 348 345 341 335 328 322 313 301 290 268 213 62 310 305 276 241 296 141 185 160 186 201 227 173 183 201 197 222 257 271 262 273 256 234 292 291 312 322 39 67 253
1 1 1 0 357 354 351 349 346 340 332 327 313 300 286 261 212 235 332 308 258 325 13 23 10 319 232 202 205 207 176 202 215 230 277 249 290 240 241 193 195 262 188 169 204 192 241
6 3 4 3 3 1 357 352 350 346 336 337 318 337 315 69 190 129 298 265 335 15 20 357 335 298 278 234 213 183 197 208 209 194 197 284 283 311 226 176 160 274 304 237 244 283 70
8 6 6 5 5 4 1 357 355 354 340 345 328 284 283 123 91 107 265 274 297 63 9 356 325 318 327 312 156 187 226 218 228 204 195 240 265 286 306 118 220 168 257 8 347 235 316
10 8 6 5 6 5 4 1 358 0 351 351 359 325 145 157 160 246 245 256 19 0 68 342 333 328 333 352 338 183 239 264 214 124 34 292 102 298 3 279 186 311 277 278 187 158 185
11 11 9 8 8 7 7 4 0 0 9 355 342 265 160 154 211 230 239 265 352 308 343 254 292 309 301 343 336 349 359 44 26 31 30 357 59 317 274 289 229 215 226 196 134 278 222
9 11 10 9 9 9 9 8 3 0 5 355 339 267 150 184 269 308 304 355 140 320 350 350 346 359 350 356 356 339 338 332 63 51 50 0 338 348 319 326 313 250 233 222 238 182 250
6 8 9 9 9 9 10 10 7 0 1 350 348 291 156 206 250 266 328 340 3 129 300 37 343 321 329 320 309 299 310 308 316 132 135 60 271 233 233 258 311 333 347 220 209 301 276
2 6 7 8 8 9 10 12 12 10 8 15 360 25 9 328 334 354 1 337 325 325 76 48 289 294 353 1 340 354 358 342 355 92 242 134 256 293 286 313 345 337 338 9 250 237 204
1 4 6 7 8 8 10 11 16 20 26 33 17 356 336 299 311 287 268 293 339 11 16 355 331 350 8 27 28 342 346 335 329 336 342 347 326 328 321 347 348 345 21 4 5 7 6
354 1 5 6 7 8 10 12 13 20 30 57 10 350 306 296 306 333 14 0 354 8 346 338 357 349 338 343 344 337 311 290 286 300 306 316 326 24 311 326 6 8 353 352 332 38 347
353 351 356 2 6 7 9 12 14 20 27 30 17 355 318 306 339 6 7 10 1 350 333 316 317 323 310 320 314 323 304 292 285 273 264 282 17 98 297 19 26 299 347 30 24 33 15
341 349 350 354 0 6 7 10 12 17 20 29 20 18 343 311 318 348 353 339 327 304 320 319 326 311 291 292 328 323 314 297 258 258 258 87 84 9 9 110 321 324 5 12 22 21 45
331 335 340 346 354 359 4 6 10 11 22 38 27 5 6 313 6 334 341 353 9 358 343 332 347 343 346 341 326 299 283 285 310 340 37 91 91 101 8 341 220 322 350 346 320 42 49
331 327 329 332 340 352 356 360 4 7 11 12 20 350 12 295 256 357 333 312 304 327 282 300 341 324 316 309 280 265 277 292 321 52 8 17 11 338 116 236 67 315 330 333 61 10 333
324 326 322 322 326 335 348 353 358 2 4 13 40 347 357 294 290 303 319 316 320 327 334 336 337 6 329 2 284 303 353 10 75 12 72 119 25 268 251 175 169 345 355 78 257 318 298
301 317 319 316 317 321 330 342 348 354 359 356 348 322 335 270 257 286 290 275 257 255 289 309 307 311 319 351 357 348 326 343 107 223 343 210 205 223 308 180 227 296 183 185 7 352 311